User: anonymous   Login
Location: Sherrills_Ford_Terrell
(35.6000°N, 80.9830°W)
Time: 13:59:23
(UTC-04:00)
Language:

CZ-4B R/B - Orbit

View from above orbital plane
View from above orbital plane
View from above satellite
View from above satellite

Ground track
Ground track

The orbit data is extracted from the following two-line orbital elements,

1 29093U 06015B   15242.22475037  .00006361  00000-0  18622-3 0  9997
2 29093 097.4936 330.1611 0077511 148.5099 269.9673 15.32601500516642
Epoch (UTC): 30 August 2015 05:23:38
Eccentricity: 0.0077511
inclination: 97.4936°
perigee height: 415 km
apogee height: 521 km
right ascension of ascending node: 330.1611°
argument of perigee: 148.5099°
revolutions per day: 15.32601500
mean anomaly at epoch: 269.9673°
orbit number at epoch: 51664

The dashed part of the orbit path shows where the satellite is in the earth's shadow,  

DLR